CW8466 Weather Reports


time (UTC)temp
C
wind
direction
speed
KPH
gust
KPH
rain 1hr
cm
rain 24hr
cm
rain mn
cm
humidity
%
barometer
mb
20260504100343 15 154 0.0 0.0 0.00 0.00 0.00 97 1014.9
20260504081844 15 154 0.0 0.0 0.00 0.00 0.00 94 1015.6
20260504080334 15 154 0.0 0.0 0.00 0.00 0.00 94 1016.2
20260504070339 16 154 0.0 0.0 0.00 0.00 0.00 90 1016.8
20260504050332 17 158 0.0 0.0 0.00 0.00 0.00 87 1018.1
20260504044832 17 158 0.0 0.0 0.00 0.00 0.00 89 1018.3
20260504043343 17 159 0.0 0.0 0.00 0.00 0.00 89 1018.5
20260504041836 17 159 0.0 0.0 0.00 0.00 0.00 88 1018.7
20260504040329 17 159 0.0 0.0 0.00 0.00 0.00 86 1018.9
20260504034905 17 159 0.0 0.0 0.00 0.00 0.00 85 1018.7
20260504033337 18 159 0.0 0.0 0.00 0.00 0.00 84 1018.8
20260504031845 18 159 0.0 0.0 0.00 0.00 0.00 83 1018.6
20260504030338 18 159 0.0 0.0 0.00 0.00 0.00 82 1018.6
20260504024850 19 159 0.0 0.0 0.00 0.00 0.00 79 1018.6
20260504023338 20 159 0.0 0.0 0.00 0.00 0.00 77 1018.4
20260504021830 20 158 0.0 0.0 0.00 0.00 0.00 75 1018.2
20260504020341 20 157 0.0 0.0 0.00 0.00 0.00 73 1018.1
20260504014855 21 157 0.0 0.0 0.00 0.00 0.00 71 1018.0
20260504013328 21 163 0.0 0.0 0.00 0.00 0.00 69 1017.9
20260504011840 21 152 0.0 0.0 0.00 0.00 0.00 69 1017.8
20260504010402 22 147 0.0 0.0 0.00 0.00 0.00 66 1017.7
20260504004850 22 156 0.0 0.0 0.00 0.00 0.00 64 1017.8
20260504003338 23 148 0.0 0.0 0.00 0.00 0.00 63 1017.9
20260504001844 23 143 0.0 0.0 0.00 0.00 0.00 61 1017.9
20260504000338 23 170 0.0 0.0 0.00 0.00 0.00 59 1018.1
20260503234835 24 161 0.0 0.0 0.00 0.00 0.00 58 1018.1
20260503233334 24 150 0.0 0.0 0.00 0.00 0.00 56 1017.9
20260503231845 25 166 0.0 0.0 0.00 0.00 0.00 56 1017.7
20260503230341 25 141 0.0 0.0 0.00 0.00 0.00 55 1017.8
20260503224838 25 150 0.0 0.0 0.00 0.00 0.00 55 1018.1
20260503223334 26 164 0.0 0.0 0.00 0.00 0.00 54 1018.3
20260503221831 26 120 0.0 0.0 0.00 0.00 0.00 52 1018.3
20260503220355 26 165 0.0 0.0 0.00 0.00 0.00 53 1018.5
20260503214842 26 165 0.0 0.0 0.00 0.00 0.00 51 1018.7
20260503213332 26 96 0.0 1.6 0.00 0.00 0.00 49 1018.8
20260503211837 26 168 0.0 1.6 0.00 0.00 0.00 45 1019.1
20260503210333 26 124 0.0 0.0 0.00 0.00 0.00 42 1019.3
20260503204841 27 94 0.0 0.0 0.00 0.00 0.00 40 1019.6
20260503203328 26 123 0.0 0.0 0.00 0.00 0.00 43 1019.9
20260503201903 27 138 0.0 0.0 0.00 0.00 0.00 41 1020.1
20260503200405 27 113 0.0 0.0 0.00 0.00 0.00 41 1020.4
20260503194837 26 170 0.0 0.0 0.00 0.00 0.00 41 1020.4
20260503193334 26 190 0.0 0.0 0.00 0.00 0.00 43 1020.5
20260503191844 26 108 0.0 1.6 0.00 0.00 0.00 48 1020.9
20260503190336 26 164 0.0 0.0 0.00 0.00 0.00 45 1020.9
20260503184831 26 165 0.0 0.0 0.00 0.00 0.00 44 1021.1
20260503183328 26 157 0.0 0.0 0.00 0.00 0.00 48 1021.7
20260503181836 26 167 0.0 0.0 0.00 0.00 0.00 49 1022.0
20260503180339 26 89 0.0 0.0 0.00 0.00 0.00 49 1022.2
20260503174827 26 128 0.0 0.0 0.00 0.00 0.00 44 1022.5
20260503173336 25 111 0.0 0.0 0.00 0.00 0.00 49 1022.5
20260503171826 25 166 0.0 0.0 0.00 0.00 0.00 51 1022.8
20260503170402 25 123 0.0 6.4 0.00 0.00 0.00 49 1023.0
20260503150340 22 111 0.0 1.6 0.00 0.00 0.00 67 1023.3
20260503130339 13 37 0.0 0.0 0.00 0.00 0.00 100 1022.6
20260503110406 12 37 0.0 0.0 0.00 0.00 0.00 100 1021.2